This is the latest recevied weather packets stored in our database for station/object K1BWE-1. If no packets are shown the sender has not sent any weather packets the latest 10 day(s).
| Time | Temp. | Humidity | Pressure | Rain* | Wind** | Luminosity | Snow |
|---|---|---|---|---|---|---|---|
| 1777608309 | 20.56° C | 40% | 1011.3 hPa | 0 mm | - | 0 W/m² | - |
| 1777608007 | 20.56° C | 40% | 1010.9 hPa | 0 mm | - | 0 W/m² | - |
| 1777607703 | 20.56° C | 40% | 1010.8 hPa | 0 mm | - | 0 W/m² | - |
| 1777607399 | 20.56° C | 40% | 1010.9 hPa | 0 mm | - | 0 W/m² | - |
| 1777607096 | 20.56° C | 41% | 1010.9 hPa | 0 mm | - | 0 W/m² | - |
| 1777606791 | 20.56° C | 41% | 1010.7 hPa | 0 mm | - | 0 W/m² | - |
| 1777606486 | 20.56° C | 42% | 1010.8 hPa | 0 mm | - | 0 W/m² | - |
| 1777606182 | 20.56° C | 41% | 1010.9 hPa | 0 mm | - | 0 W/m² | - |
| 1777605878 | 20.56° C | 40% | 1010.5 hPa | 0 mm | - | 0 W/m² | - |
| 1777605573 | 21.11° C | 41% | 1010.5 hPa | 0 mm | - | 0 W/m² | - |
| 1777605268 | 21.11° C | 41% | 1010.7 hPa | 0 mm | - | 0 W/m² | - |
| 1777604965 | 21.11° C | 38% | 1010.6 hPa | 0 mm | - | 0 W/m² | - |
| 1777604654 | 21.11° C | 38% | 1010.6 hPa | 0 mm | - | 0 W/m² | - |
| 1777604351 | 21.67° C | 38% | 1010.6 hPa | 0 mm | - | 0 W/m² | - |
| 1777604045 | 21.11° C | 38% | 1010.5 hPa | 0 mm | - | 0 W/m² | - |
| 1777603743 | 21.11° C | 39% | 1010.6 hPa | 0 mm | - | 0 W/m² | - |
| 1777603439 | 21.11° C | 39% | 1010.4 hPa | 0 mm | - | 0 W/m² | - |
| 1777603135 | 21.67° C | 39% | 1010.4 hPa | 0 mm | - | 0 W/m² | - |
| 1777602830 | 21.67° C | 38% | 1010.3 hPa | 0 mm | - | 0 W/m² | - |
| 1777602525 | 21.67° C | 37% | 1010.2 hPa | 0 mm | - | 0 W/m² | - |
| 1777602222 | 22.22° C | 35% | 1010.3 hPa | 0 mm | - | 0 W/m² | - |
| 1777601917 | 22.22° C | 34% | 1009.6 hPa | 0 mm | - | 0 W/m² | - |
| 1777601612 | 22.78° C | 32% | 1009.7 hPa | 0 mm | - | 0 W/m² | - |
| 1777601307 | 22.78° C | 27% | 1009.8 hPa | 0 mm | - | 0 W/m² | - |
| 1777601005 | 23.33° C | 26% | 1009.6 hPa | 0 mm | - | 0 W/m² | - |
* Rain latest hour (hover to see other rain measurements)
** Current wind speed in m/s (hover to see current wind gust speed)